Other Surface Observations
Issued by NWS Tucson, AZ

Home | Current Version | Previous Version | Text Only | Print | Product List | Glossary On
Versions: 1 2 3 4 5 6 7 8 9 10 11 12 13 14 15 16 17 18 19 20 21 22 23 24 25 26 27 28 29 30 31 32 33 34 35 36 37 38 39 40 41 42 43 44 45 46 47 48 49 50
384
SXUS55 KTWC 290415
OSOTWC

WEATHER ROUNDUP FOR SOUTHEAST ARIZONA
NATIONAL WEATHER SERVICE TUCSON AZ
915 PM MST WED JUN 28 2017

AZZ504>506-514-290515-
LOCATION       SKY/WX    TMP DP  RH WIND       PRES   REMARKS
TUCSON         CLEAR     96  40  14 W9        29.87R
DAVIS-MONTHAN  CLEAR     94  41  15 W14       29.86R
CHILDRENS PARK N/A      N/A N/A  13 W6                PIMA CO DEQ
ALVERNON/22ND  N/A       99 N/A N/A W9                PIMA CO DEQ
CHERRY/GLENN   N/A      N/A N/A N/A N/A               PIMA CO DEQ
TANGERINE      N/A       98 N/A N/A W9                PIMA CO DEQ
CONTL RANCH    N/A      100  38  12 W8                PIMA CO DEQ
GRANT/1ST      N/A       99  40  13 W9                PIMA CO DEQ
CRAYCROFT/22ND N/A       99  40  13 W10               PIMA CO DEQ
GOLFLINKS/KOLB N/A      N/A N/A N/A N/A               PIMA CO DEQ
AJO/12TH       N/A       99  40  13 W8                PIMA CO DEQ
FAIRGROUNDS    N/A       96 N/A N/A SW13              PIMA CO DEQ
SAGUARO        N/A       96  39  14 NW7G15            *SABINO CYN
SAN CARLOS     N/A       92  39  16 W5G10             *SAN CARLOS
GREEN VALLEY   N/A       96  41  15 SW8               PIMA CO DEQ
HORSE CAMP CYN N/A       89  40  18 W11G20            *ARAVAIPA CYN
RINCON MTNS    NOT AVBL
$$

AZZ509>511-290515-
LOCATION       SKY/WX    TMP DP  RH WIND       PRES   REMARKS
SAFFORD        CLEAR     92  39  15 NW13      29.85R
STRAY HORSE    N/A       69  26  20 W6G17             *
TRAIL CABIN    N/A       76  33  21 W5G13             *N OF GRANVILLE
BLACK HILLS    NOT AVBL
DRY LAKE       N/A       69  31  24 W3                *NATANES MTNS
NOON CREEK     N/A       85  34  16 SW10G17           *PINALENO MTNS
COLUMBINE      N/A       61  30  31 SW5G16            *PINALENO MTNS
GUTHRIE        N/A       79  36  21 W13G27            *SW OF GUTHRIE
$$

AZZ502-503-513-290515-
LOCATION       SKY/WX    TMP DP  RH WIND       PRES   REMARKS
NOGALES        CLEAR     87  49  26 SW10      29.99R
SELLS          N/A       92  42  18 NE9G17            *
SASABE         N/A       89  49  25 SW10G19           *ALTAR VLY
HOPKINS        N/A       71  39  31 W6G15             *SANTA RITA MTNS
CARR CYN       N/A       80  43  27 SW3G10            *W OF HEREFORD
$$

AZZ507-508-512-290515-
LOCATION       SKY/WX    TMP DP  RH WIND       PRES   REMARKS
SIERRA VISTA   CLEAR     85  38  19 W10       30.06R
DOUGLAS        CLEAR     86  47  25 W12       29.99R
EMPIRE MTNS    NOT AVBL
MULESHOE RANCH N/A       88  36  16 NW5G17            *PRESERVE
HEADQUARTERS   NOT AVBL
$$

.............................NOTES.............................
THIS IS AN AUTOMATED COLLECTIVE WITH MINIMAL QUALITY CONTROL.
PIMA CO DEQ SITES HAVE NONSTANDARD WIND SENSOR HEIGHTS.
PIMA CO DEQ SITES DO NOT REPORT WIND GUSTS.
* INDICATES WIND SENSORS LOCATED AT 20 FEET INSTEAD OF 33 FEET.
..............................KEY..............................
SKY/WX - SKY CONDITION/WEATHER
TMP    - TEMPERATURE IN FAHRENHEIT
DP     - DEWPOINT IN FAHRENHEIT
RH     - RELATIVE HUMIDITY IN PERCENT
WIND   - DIRECTION AND SPEED IN MILES PER HOUR (MPH)
VRB    - VARIABLE WIND DIRECTION
PRES   - MEAN SEA LEVEL PRESSURE IN INCHES OF MERCURY
         F - FALLING PRESSURE   R - RISING PRESSURE
         S - STEADY PRESSURE
VSB    - VISIBILITY IN MILES
HX     - HEAT INDEX IN FAHRENHEIT
WCI    - WIND CHILL INDEX IN FAHRENHEIT
N/A    - NOT AVAILABLE
AFB    - AIR FORCE BASE
         DAVIS-MONTHAN IS DAVIS-MONTHAN AIR FORCE BASE
CYN    - CANYON
MTNS   - MOUNTAINS
NCA    - NATIONAL CONSERVATION AREA
NR     - NEAR
VLY    - VALLEY
CONTL  - CONTINENTAL
PIMA CO DEQ - PIMA COUNTY DEPT OF ENVIRONMENTAL QUALITY



USA.gov is the U.S. government's official web portal to all federal, state and local government web resources and services.